When you browse on this site, cookies collect data to enhance your experience and personalize the content and advertising you see.
Visit our Privacy Policy to learn more. By continuing to use the site, you agree to this use of cookies and data.
  • In Austria
  • List of Countries
  • For 7 days
  • Water Temperature
  • Weather Map
  • News
  • Weather Widgets
  • user-avatar
    Login

    Hourly Weather Saurimo

    Today, 7 December, Saturday

    Time Temperature Precipitation Wind Pressure Humidity
    00:00 +20°C° 0.1 mm 1 mps 668 mmHg 96%
    01:00 +20°C° 0 mm 1 mps 668 mmHg 97%
    02:00 +20°C° 0.9 mm 1 mps 668 mmHg 97%
    03:00 +20°C° 0.9 mm 1 mps 668 mmHg 98%
    04:00 +18°C° 0.9 mm 0 mps 668 mmHg 98%
    05:00 +18°C° 1.7 mm 0 mps 669 mmHg 98%
    06:00 +20°C° 1.7 mm 1 mps 669 mmHg 98%
    07:00 +20°C° 0 mm 1 mps 670 mmHg 99%
    08:00 +21°C° 0.8 mm 1 mps 670 mmHg 97%
    09:00 +20°C° 0.8 mm 2 mps 670 mmHg 96%
    10:00 +21°C° 0.8 mm 2 mps 670 mmHg 95%
    11:00 +21°C° 0.8 mm 2 mps 670 mmHg 93%
    12:00 +23°C° 0.8 mm 2 mps 669 mmHg 92%
    13:00 +23°C° 0 mm 2 mps 669 mmHg 90%
    14:00 +23°C° 0.5 mm 2 mps 669 mmHg 89%
    15:00 +24°C° 0.5 mm 2 mps 668 mmHg 88%
    16:00 +24°C° 0.5 mm 2 mps 668 mmHg 86%
    17:00 +23°C° 0 mm 1 mps 668 mmHg 90%
    18:00 +22°C° 0 mm 1 mps 668 mmHg 93%
    19:00 +21°C° 0 mm 1 mps 668 mmHg 97%
    20:00 +21°C° 0.1 mm 1 mps 669 mmHg 97%
    21:00 +21°C° 0.1 mm 1 mps 669 mmHg 98%
    22:00 +20°C° 0.1 mm 1 mps 669 mmHg 98%
    23:00 +20°C° 0.6 mm 1 mps 669 mmHg 98%

    Tomorrow, 8 December, Sunday

    Time Temperature Precipitation Wind Pressure Humidity
    00:00 +20°C° 0.6 mm 1 mps 669 mmHg 98%
    01:00 +20°C° 0.6 mm 1 mps 669 mmHg 99%
    02:00 +20°C° 0.1 mm 1 mps 669 mmHg 99%
    03:00 +20°C° 0.1 mm 1 mps 668 mmHg 99%
    04:00 +19°C° 0.1 mm 1 mps 668 mmHg 99%
    05:00 +20°C° 0 mm 1 mps 669 mmHg 98%
    06:00 +21°C° 0 mm 1 mps 669 mmHg 97%
    07:00 +20°C° 0 mm 2 mps 670 mmHg 96%
    08:00 +21°C° 0 mm 2 mps 670 mmHg 90%
    09:00 +23°C° 0 mm 2 mps 670 mmHg 85%
    10:00 +24°C° 0 mm 2 mps 670 mmHg 80%
    11:00 +26°C° 0 mm 2 mps 670 mmHg 75%
    12:00 +27°C° 0 mm 2 mps 669 mmHg 70%
    13:00 +28°C° 0 mm 3 mps 668 mmHg 65%
    14:00 +28°C° 0.3 mm 2 mps 668 mmHg 69%
    15:00 +27°C° 0.3 mm 2 mps 667 mmHg 73%
    16:00 +27°C° 0.3 mm 2 mps 667 mmHg 78%
    17:00 +25°C° 0.6 mm 2 mps 667 mmHg 83%
    18:00 +24°C° 0.6 mm 1 mps 667 mmHg 88%
    19:00 +22°C° 0.6 mm 1 mps 668 mmHg 93%
    20:00 +22°C° 1.4 mm 1 mps 668 mmHg 95%
    21:00 +21°C° 1.4 mm 1 mps 668 mmHg 96%
    22:00 +21°C° 1.4 mm 1 mps 669 mmHg 98%
    23:00 +21°C° 0.8 mm 1 mps 668 mmHg 98%

    Day after tomorrow, 9 December, Monday

    Time Temperature Precipitation Wind Pressure Humidity
    00:00 +20°C° 0.8 mm 1 mps 668 mmHg 98%
    01:00 +19°C° 0.8 mm 2 mps 668 mmHg 98%
    02:00 +20°C° 0.1 mm 1 mps 668 mmHg 98%
    03:00 +20°C° 0.1 mm 1 mps 668 mmHg 98%
    04:00 +20°C° 0.1 mm 1 mps 667 mmHg 98%
    05:00 +21°C° 0 mm 1 mps 668 mmHg 97%
    06:00 +21°C° 0 mm 1 mps 669 mmHg 95%
    07:00 +21°C° 0 mm 2 mps 669 mmHg 94%
    08:00 +23°C° 0 mm 2 mps 670 mmHg 87%
    09:00 +25°C° 0 mm 2 mps 670 mmHg 79%
    10:00 +27°C° 0 mm 3 mps 670 mmHg 72%
    11:00 +27°C° 0.7 mm 2 mps 669 mmHg 73%
    12:00 +27°C° 0.7 mm 2 mps 669 mmHg 74%
    13:00 +27°C° 0.7 mm 2 mps 668 mmHg 75%
    14:00 +27°C° 0.6 mm 2 mps 668 mmHg 78%
    15:00 +26°C° 0.6 mm 2 mps 667 mmHg 81%
    16:00 +26°C° 0.6 mm 2 mps 667 mmHg 84%
    17:00 +24°C° 0.4 mm 2 mps 667 mmHg 88%
    18:00 +23°C° 0.4 mm 2 mps 668 mmHg 92%
    19:00 +21°C° 0.4 mm 2 mps 668 mmHg 96%
    20:00 +20°C° 0.3 mm 2 mps 668 mmHg 96%
    21:00 +20°C° 0.3 mm 2 mps 669 mmHg 97%
    22:00 +20°C° 0.3 mm 1 mps 669 mmHg 98%
    23:00 +20°C° 0 mm 1 mps 669 mmHg 98%

    10 December, Tuesday

    Time Temperature Precipitation Wind Pressure Humidity
    00:00 +20°C° 0 mm 1 mps 669 mmHg 98%
    01:00 +19°C° 0 mm 1 mps 668 mmHg 98%
    02:00 +19°C° 0 mm 1 mps 668 mmHg 98%
    03:00 +19°C° 0 mm 1 mps 668 mmHg 98%
    04:00 +17°C° 0 mm 0 mps 668 mmHg 98%
    05:00 +19°C° 0 mm 1 mps 668 mmHg 97%
    06:00 +20°C° 0 mm 1 mps 669 mmHg 95%
    07:00 +21°C° 0 mm 1 mps 670 mmHg 94%
    08:00 +22°C° 0 mm 1 mps 670 mmHg 91%
    09:00 +21°C° 0 mm 2 mps 670 mmHg 89%
    10:00 +23°C° 0 mm 2 mps 670 mmHg 86%
    11:00 +23°C° 0.2 mm 2 mps 669 mmHg 84%
    12:00 +24°C° 0.2 mm 2 mps 669 mmHg 83%
    13:00 +25°C° 0.2 mm 2 mps 669 mmHg 81%
    14:00 +25°C° 0.3 mm 2 mps 669 mmHg 79%
    15:00 +25°C° 0.3 mm 2 mps 668 mmHg 78%
    16:00 +25°C° 0.3 mm 1 mps 668 mmHg 77%
    17:00 +24°C° 0 mm 1 mps 668 mmHg 82%
    18:00 +22°C° 0 mm 1 mps 668 mmHg 87%
    19:00 +19°C° 0 mm 0 mps 668 mmHg 92%
    20:00 +18°C° 0 mm 0 mps 669 mmHg 93%
    21:00 +20°C° 0 mm 1 mps 669 mmHg 93%
    22:00 +20°C° 0 mm 1 mps 669 mmHg 94%
    23:00 +20°C° 0 mm 1 mps 669 mmHg 94%

    11 December, Wednesday

    Time Temperature Precipitation Wind Pressure Humidity
    00:00 +20°C° 0 mm 1 mps 669 mmHg 93%
    01:00 +20°C° 0 mm 1 mps 669 mmHg 92%
    02:00 +20°C° 0 mm 1 mps 669 mmHg 92%
    03:00 +20°C° 0 mm 1 mps 668 mmHg 91%
    04:00 +20°C° 0 mm 1 mps 668 mmHg 90%
    05:00 +20°C° 0.1 mm 1 mps 669 mmHg 89%
    06:00 +20°C° 0.1 mm 1 mps 669 mmHg 89%
    07:00 +21°C° 0.1 mm 1 mps 669 mmHg 89%
    08:00 +23°C° 0 mm 1 mps 670 mmHg 82%
    09:00 +25°C° 0 mm 2 mps 670 mmHg 75%
    10:00 +26°C° 0 mm 2 mps 671 mmHg 68%
    11:00 +27°C° 0.3 mm 2 mps 670 mmHg 68%
    12:00 +28°C° 0.3 mm 1 mps 669 mmHg 69%
    13:00 +28°C° 0.3 mm 1 mps 669 mmHg 70%
    14:00 +27°C° 1.4 mm 1 mps 668 mmHg 74%
    15:00 +27°C° 1.4 mm 1 mps 668 mmHg 79%
    16:00 +26°C° 1.4 mm 1 mps 667 mmHg 84%
    17:00 +25°C° 0.4 mm 1 mps 668 mmHg 87%
    18:00 +23°C° 0.4 mm 1 mps 668 mmHg 90%
    19:00 +22°C° 0.4 mm 1 mps 668 mmHg 93%
    20:00 +21°C° 0.7 mm 1 mps 669 mmHg 94%
    21:00 +21°C° 0.7 mm 1 mps 669 mmHg 95%
    22:00 +21°C° 0.7 mm 1 mps 670 mmHg 96%
    23:00 +20°C° 0.2 mm 1 mps 669 mmHg 96%

    12 December, Thursday

    Time Temperature Precipitation Wind Pressure Humidity
    00:00 +20°C° 0.2 mm 1 mps 669 mmHg 97%
    01:00 +20°C° 0.2 mm 1 mps 669 mmHg 98%
    02:00 +20°C° 0.6 mm 1 mps 669 mmHg 97%
    03:00 +20°C° 0.6 mm 1 mps 669 mmHg 97%
    04:00 +20°C° 0.6 mm 1 mps 669 mmHg 97%
    05:00 +20°C° 0.1 mm 1 mps 669 mmHg 97%
    06:00 +20°C° 0.1 mm 1 mps 669 mmHg 97%
    07:00 +20°C° 0.1 mm 1 mps 670 mmHg 97%
    08:00 +22°C° 0 mm 1 mps 670 mmHg 89%
    09:00 +24°C° 0 mm 1 mps 670 mmHg 82%
    10:00 +25°C° 0 mm 2 mps 671 mmHg 75%
    11:00 +26°C° 0.2 mm 1 mps 670 mmHg 73%
    12:00 +27°C° 0.2 mm 1 mps 670 mmHg 70%
    13:00 +28°C° 0.2 mm 1 mps 669 mmHg 68%
    14:00 +27°C° 1.1 mm 1 mps 669 mmHg 74%
    15:00 +26°C° 1.1 mm 1 mps 668 mmHg 79%
    16:00 +26°C° 1.1 mm 1 mps 668 mmHg 84%
    17:00 +24°C° 0.8 mm 1 mps 668 mmHg 87%
    18:00 +23°C° 0.8 mm 1 mps 668 mmHg 89%
    19:00 +21°C° 0.8 mm 1 mps 668 mmHg 92%
    20:00 +21°C° 0.2 mm 1 mps 669 mmHg 93%
    21:00 +21°C° 0.2 mm 1 mps 669 mmHg 94%
    22:00 +21°C° 0.2 mm 1 mps 670 mmHg 95%
    23:00 +20°C° 0.5 mm 1 mps 669 mmHg 95%
    Show more